Weather History for Monte Cimone, Italy

Change the Weather History Date:

Wednesday, April 3, 2013

  Actual Average Record
Temperature  
Mean Temperature 30 °F -  
Max Temperature 34 °F 35 °F 48 °F (2011)
Min Temperature 25 °F 28 °F 23 °F (2008)
Degree Days  
Heating Degree Days 36    
Moisture  
Dew Point 29 °F    
Average Humidity 91    
Maximum Humidity 100    
Minimum Humidity 80    
Precipitation  
Precipitation 0.12 in 0.07 in - ()
Sea Level Pressure  
Sea Level Pressure 29.60 in    
Wind  
Wind Speed 18 mph ()    
Max Wind Speed 25 mph    
Max Gust Speed -    
Visibility 0.3 miles    
Events Fog , Rain    
Averages and records for this station are not official NWS values.
T = Trace of Precipitation, MM = Missing Value Source: Averaged Metar Reports

Daily Weather History Graph

Daily Weather History Graph

Search for Another Location

Airport:

Trip Planner

Search our weather history database for the weather conditions in past years. The results will help you decide how hot, cold, wet, or windy it might be!

Date:

Astronomy

Apr. 03, 2013 Rise Set
Actual Time 6:54 AM CEST 7:46 PM CEST
Civil Twilight 6:25 AM CEST 8:16 PM CEST
Nautical Twilight 5:50 AM CEST 8:51 PM CEST
Astronomical Twilight 5:14 AM CEST 9:27 PM CEST
Moon 2:36 AM CEST (4/3) 12:26 PM CEST (4/3)
Length of Visible Light 13h 50m
Length of Day
12h 51m
Waning Gibbous, 47% of the Moon is Illuminated
Apr 3
Waning Gibbous
Apr 10
New
Apr 18
First Quarter
Apr 25
Full
May 2
Last Quarter

Hourly Weather History & Observations

Time (CEST) Temp. Windchill Dew Point Humidity Pressure Visibility Wind Dir Wind Speed Gust Speed Precip Events Conditions
12:55 AM 30.2 °F 16.2 °F 26.6 °F 86% 29.53 in 0.5 mi NE 25.3 mph - N/A Fog Light Freezing Fog
1:55 AM 30.2 °F 16.2 °F 26.6 °F 86% 29.53 in 0.2 mi NE 25.3 mph - N/A Fog Light Freezing Fog
2:00 AM 30 °F - 27 °F 85%  in 0 mi NE 25.3 mph - - Fog Heavy Fog
2:55 AM 30.2 °F 16.8 °F 28.4 °F 93% 29.53 in 0.0 mi NE 23.0 mph - N/A Fog Light Freezing Fog
3:55 AM 30.2 °F 16.8 °F 28.4 °F 93% 29.53 in 0.0 mi NE 23.0 mph - N/A Fog Light Freezing Fog
4:55 AM 30.2 °F 16.8 °F 28.4 °F 93% 29.53 in 0.0 mi NE 23.0 mph - N/A Fog Light Freezing Fog
5:55 AM 30.2 °F 16.8 °F 28.4 °F 93% 29.53 in 0.0 mi NE 23.0 mph - N/A Fog Light Freezing Fog
6:55 AM 30.2 °F 16.8 °F 30.2 °F 100% 29.53 in 0.0 mi NE 23.0 mph - N/A Fog Light Freezing Fog
7:55 AM 30.2 °F 18.5 °F 28.4 °F 93% 29.53 in 0.0 mi NE 17.3 mph - N/A Fog Light Freezing Fog
8:00 AM 31 °F - 29 °F 87%  in 0 mi NE 17.3 mph - - Fog Heavy Fog
9:55 AM 30.2 °F 17.4 °F 28.4 °F 93% 29.56 in 0.0 mi NE 20.7 mph - N/A Fog Light Freezing Fog
10:55 AM 32.0 °F 19.8 °F 28.4 °F 87% 29.56 in 0.0 mi NE 20.7 mph - N/A Fog Light Freezing Fog
11:55 AM 32.0 °F 19.8 °F 28.4 °F 87% 29.56 in 0.0 mi NE 20.7 mph - N/A Fog Light Freezing Fog
12:55 PM 32.0 °F 19.2 °F 30.2 °F 93% 29.59 in 0.0 mi NE 23.0 mph - N/A Fog Light Freezing Fog
1:55 PM 33.8 °F 23.2 °F 32.0 °F 93% 29.62 in 0.0 mi NE 17.3 mph - N/A Fog Fog
2:00 PM 33 °F - 31 °F 91%  in 0 mi NE 17.3 mph - - Fog Heavy Fog
2:55 PM 32.0 °F 21.6 °F 28.4 °F 87% 29.62 in 6.2 mi NE 15.0 mph - N/A   Scattered Clouds
3:55 PM 33.8 °F 24.8 °F 30.2 °F 87% 29.65 in 1.2 mi NE 12.7 mph - N/A   Mostly Cloudy
4:55 PM 33.8 °F 25.3 °F 32.0 °F 93% 29.65 in 0.0 mi NE 11.5 mph - N/A Fog Fog
5:55 PM 32.0 °F 23.0 °F 30.2 °F 93% 29.65 in - NE 11.5 mph - N/A Fog , Rain Rain
6:55 PM 32.0 °F 22.5 °F 30.2 °F 93% 29.65 in 0.0 mi NE 12.7 mph - N/A Fog Fog
7:55 PM 32.0 °F 22.1 °F 30.2 °F 93% 29.65 in 0.0 mi NE 13.8 mph - N/A Fog Fog
8:00 PM 33 °F - 31 °F 89%  in 0 mi NE 13.8 mph - - Fog Heavy Fog
8:55 PM 32.0 °F 22.1 °F 30.2 °F 93% 29.68 in 0.0 mi NE 13.8 mph - N/A Fog Fog
9:55 PM 32.0 °F 22.1 °F 30.2 °F 93% 29.68 in 0.0 mi NE 13.8 mph - N/A Fog Fog
10:55 PM 32.0 °F 22.1 °F 30.2 °F 93% 29.68 in 0.0 mi NE 13.8 mph - N/A Fog Fog
11:55 PM 32.0 °F 23.0 °F 26.6 °F 80% 29.68 in - NE 11.5 mph - N/A   Clear